Location: Frydek-Mistek
(49.6830°N, 18.3330°E)
Time: 04:51:54
(UTC+02:00)

ISS - Pass Details

Date: 27 May 2021
Orbit: 417 x 422 km, 51.6° (Epoch: 13 June)

Event Time Altitude Azimuth Distance (km) Brightness Sun altitude
Rises 22:14:45 0° 288° (WNW) 2,367 1.0 -11.6°
Reaches altitude 10° 22:16:54 10° 283° (WNW) 1,502 -0.2 -11.8°
Maximum altitude 22:20:09 46° 209° (SSW) 572 -3.3 -12.1°
Enters shadow 22:22:01 22° 144° (SE) 984 -2.5 -12.2°
